Find Kosmos-795

NORAD ID: 8611 Int'l Des: 1976-008 Owner: GUKOSR Country: SU operational
LEOCIRCULAR

实时位置

正在加载3D地球...

关于 Kosmos-795

正在加载描述...

即将过境

Passes for default location (London). Set your location on the main map for personalized predictions.

高度历史

Loading altitude history...

两行轨道根数

1 8611U 76008E 26119.81490757 -.00000025 00000-0 -65359-4 0 9998
2 8611 74.0541 258.6465 0019525 119.4381 240.8619 12.45793865285201
Epoch: Apr 29, 2026 • Age: 6 hours

当前状态

高度 1495.1 km
速度 7.11 km/s
星下点 -7.89°S, 18.64°E
类型 other

Most Searched